Weather History for Moses Lake, WA

Change the Weather History Date:

Tuesday, February 12, 2013

  Actual Average Record
Temperature  
Mean Temperature 38 °F 34 °F  
Max Temperature 49 °F 43 °F 60 °F (2011)
Min Temperature 26 °F 26 °F 10 °F (1997)
Degree Days  
Heating Degree Days 27 30  
Month to date heating degree days 353 379  
Since 1 July heating degree days 3707 4053  
Cooling Degree Days 0 0  
Month to date cooling degree days 0 0  
Year to date cooling degree days 0 0  
Moisture  
Dew Point 29 °F    
Average Humidity 75    
Maximum Humidity 92    
Minimum Humidity 58    
Precipitation  
Precipitation 0.00 in 0.03 in 0.25 in (1998)
Month to date precipitation 0.00 0.40  
Year to date precipitation 0.28 1.54  
Sea Level Pressure  
Sea Level Pressure 30.28 in    
Wind  
Wind Speed 6 mph (South)    
Max Wind Speed 20 mph    
Max Gust Speed 26 mph    
Visibility 8 miles    
Events      
T = Trace of Precipitation, MM = Missing Value Source: NWS Daily Summary

Daily Weather History Graph

Daily Weather History Graph

Search for Another Location

Airport:

Trip Planner

Search our weather history database for the weather conditions in past years. The results will help you decide how hot, cold, wet, or windy it might be!

Date:

Astronomy

Feb. 12, 2013 Rise Set
Actual Time 7:06 AM PST 5:17 PM PST
Civil Twilight 6:34 AM PST 5:48 PM PST
Nautical Twilight 5:58 AM PST 6:24 PM PST
Astronomical Twilight 5:23 AM PST 7:00 PM PST
Moon 7:51 AM PST (2/12) 8:40 PM PST (2/12)
Length of Visible Light 11h 14m
Length of Day
10h 10m
Waxing Crescent, 8% of the Moon is Illuminated
Feb 12
Waxing Crescent
Feb 17
First Quarter
Feb 25
Full
Mar 4
Last Quarter
Mar 11
New

Hourly Weather History & Observations

Time (PST) Temp. Windchill Dew Point Humidity Pressure Visibility Wind Dir Wind Speed Gust Speed Precip Events Conditions
12:52 AM 27.0 °F 21.6 °F 24.1 °F 89% 30.28 in 6.0 mi North 4.6 mph - N/A   Clear
1:52 AM 27.0 °F - 24.1 °F 89% 30.29 in 6.0 mi Calm Calm - N/A   Clear
2:52 AM 28.0 °F - 25.0 °F 88% 30.29 in 6.0 mi Calm Calm - N/A   Overcast
3:52 AM 28.9 °F 25.2 °F 25.0 °F 85% 30.29 in 6.0 mi North 3.5 mph - N/A   Partly Cloudy
4:52 AM 28.0 °F 21.7 °F 25.0 °F 88% 30.30 in 6.0 mi NNE 5.8 mph - N/A   Mostly Cloudy
5:52 AM 28.9 °F 25.2 °F 26.1 °F 89% 30.31 in 6.0 mi NNE 3.5 mph - N/A   Overcast
6:52 AM 28.9 °F - 25.0 °F 85% 30.32 in 6.0 mi Calm Calm - N/A   Partly Cloudy
7:52 AM 30.0 °F - 26.1 °F 85% 30.34 in 5.0 mi Calm Calm - N/A   Overcast
8:52 AM 32.0 °F - 28.0 °F 85% 30.34 in 5.0 mi Calm Calm - N/A   Overcast
9:52 AM 34.0 °F - 30.0 °F 85% 30.34 in 6.0 mi Calm Calm - N/A   Scattered Clouds
10:52 AM 35.1 °F - 28.9 °F 78% 30.34 in 7.0 mi Calm Calm - N/A   Clear
11:52 AM 37.0 °F 33.3 °F 30.9 °F 79% 30.33 in 6.0 mi ESE 4.6 mph - N/A   Haze
12:52 PM 39.9 °F - 30.9 °F 70% 30.32 in 8.0 mi Calm Calm - N/A   Mostly Cloudy
1:52 PM 44.1 °F 40.8 °F 30.9 °F 60% 30.31 in 10.0 mi SW 5.8 mph - N/A   Scattered Clouds
2:52 PM 45.0 °F 41.2 °F 30.9 °F 58% 30.29 in 10.0 mi SSW 6.9 mph - N/A   Clear
3:52 PM 45.0 °F 42.6 °F 32.0 °F 60% 30.27 in 10.0 mi SSE 4.6 mph - N/A   Clear
4:52 PM 46.0 °F 42.5 °F 33.1 °F 61% 30.25 in 10.0 mi SSE 6.9 mph - N/A   Partly Cloudy
5:52 PM 46.0 °F 41.4 °F 32.0 °F 58% 30.24 in 10.0 mi South 9.2 mph - N/A   Clear
6:52 PM 45.0 °F 38.9 °F 30.9 °F 58% 30.23 in 10.0 mi South 12.7 mph - N/A   Clear
7:52 PM 45.0 °F 38.9 °F 32.0 °F 60% 30.22 in 10.0 mi SW 12.7 mph - N/A   Partly Cloudy
8:52 PM 44.1 °F 38.6 °F 32.0 °F 63% 30.22 in 10.0 mi SSW 10.4 mph - N/A   Scattered Clouds
9:52 PM 46.0 °F 40.6 °F 33.1 °F 61% 30.20 in 10.0 mi South 11.5 mph - N/A   Mostly Cloudy
10:52 PM 46.0 °F 39.9 °F 33.1 °F 61% 30.19 in 10.0 mi SSW 13.8 mph - N/A   Scattered Clouds
11:52 PM 46.0 °F 39.3 °F 33.1 °F 61% 30.19 in 10.0 mi SSW 16.1 mph 24.2 mph N/A   Clear